Weather History for KHFF - March, 2014

Change the Weather History Date:

Saturday, March 8, 2014

  Actual Average Record
Temperature  
Mean Temperature 47 °F -  
Max Temperature 66 °F 57 °F 79 °F (2009)
Min Temperature 28 °F 37 °F 26 °F (1999)
Degree Days  
Heating Degree Days 18    
Moisture  
Dew Point 38 °F    
Average Humidity 75    
Maximum Humidity 100    
Minimum Humidity 36    
Precipitation  
Precipitation 0.00 in - - ()
Sea Level Pressure  
Sea Level Pressure 30.06 in    
Wind  
Wind Speed 4 mph (WSW)    
Max Wind Speed 13 mph    
Max Gust Speed 18 mph    
Visibility 11 miles    
Events      
Averages and records for this station are not official NWS values.
T = Trace of Precipitation, MM = Missing Value Source: NWS Daily Summary

Daily Weather History Graph

Daily Weather History Graph

Search for Another Location

Airport or City:

Trip Planner

Search our weather history database for the weather conditions in past years. The results will help you decide how hot, cold, wet, or windy it might be!

Date:

Astronomy

Mar. 08, 2014 Rise Set
Actual Time 6:38 AM EST 6:19 PM EST
Civil Twilight 6:12 AM EST 6:45 PM EST
Nautical Twilight 5:43 AM EST 7:14 PM EST
Astronomical Twilight 5:14 AM EST 7:43 PM EST
Moon 11:32 AM EST (3/8) 1:02 AM EST (3/8)
Length of Visible Light 12h 32m
Length of Day
11h 41m
First Quarter, 51% of the Moon is Illuminated
Mar 8
First Quarter
Mar 16
Full
Mar 23
Last Quarter
Mar 30
New
Apr 7
First Quarter

Hourly Weather History & Observations

Time (EST) Temp. Windchill Dew Point Humidity Pressure Visibility Wind Dir Wind Speed Gust Speed Precip Events Conditions
12:56 AM 30.9 °F - 30.9 °F 100% 30.01 in 6.0 mi North 2.3 mph - N/A   Clear
1:56 AM 31.5 °F - 31.6 °F 100% 30.05 in 12.0 mi Calm Calm - N/A   Clear
2:56 AM 30.9 °F - 31.1 °F 100% 30.04 in 6.0 mi North 2.3 mph - N/A   Clear
3:56 AM 29.7 °F - 30.0 °F 100% 30.04 in 5.0 mi Calm Calm - N/A   Clear
4:56 AM 30.0 °F - 30.4 °F 100% 30.06 in 6.0 mi ESE 1.2 mph - N/A   Clear
5:56 AM 28.9 °F - 28.4 °F 98% 30.07 in 11.0 mi Calm Calm - N/A   Clear
6:56 AM 28.6 °F - 28.6 °F 100% 30.09 in 12.0 mi SSW 1.2 mph - N/A   Clear
7:56 AM 33.6 °F - 33.8 °F 100% 30.11 in 7.0 mi North 2.3 mph - N/A   Clear
8:56 AM 42.8 °F 38.6 °F 39.6 °F 88% 30.13 in 12.0 mi West 6.9 mph - N/A   Clear
9:56 AM 47.8 °F - 43.2 °F 84% 30.12 in 12.0 mi West 6.9 mph - N/A   Clear
10:56 AM 54.1 °F - 45.0 °F 71% 30.12 in 12.0 mi West 6.9 mph - N/A   Clear
11:56 AM 59.7 °F - 44.6 °F 57% 30.10 in 12.0 mi West 6.9 mph - N/A   Clear
12:56 PM 62.1 °F - 43.3 °F 50% 30.08 in 12.0 mi West 9.2 mph 15.0 mph N/A   Clear
1:56 PM 64.6 °F - 44.8 °F 49% 30.04 in 12.0 mi WSW 8.1 mph 13.8 mph N/A   Clear
2:56 PM 65.8 °F - 39.9 °F 39% 30.02 in 12.0 mi SW 12.7 mph 18.4 mph N/A   Clear
3:56 PM 66.0 °F - 42.6 °F 43% 30.01 in 12.0 mi SSW 11.5 mph 16.1 mph N/A   Clear
4:56 PM 66.4 °F - 38.8 °F 36% 30.01 in 12.0 mi WSW 8.1 mph - N/A   Clear
5:56 PM 64.2 °F - 42.8 °F 46% 30.02 in 12.0 mi SW 6.9 mph - N/A   Clear
6:56 PM 55.8 °F - 44.4 °F 66% 30.04 in 12.0 mi South 4.6 mph - N/A   Clear
7:56 PM 51.4 °F - 43.5 °F 74% 30.04 in 12.0 mi SW 5.8 mph - N/A   Clear
8:56 PM 52.2 °F - 43.7 °F 73% 30.04 in 12.0 mi SSW 8.1 mph - N/A   Clear
9:56 PM 52.0 °F - 43.2 °F 72% 30.05 in 12.0 mi SSW 6.9 mph - N/A   Clear